Weather History for KMZG - January, 2014

Change the Weather History Date:

Friday, January 31, 2014

  Actual Average Record
Temperature  
Mean Temperature 68 °F -  
Max Temperature 71 °F - - ()
Min Temperature 66 °F - - ()
Cooling Degree Days 4    
Growing Degree Days 18 (Base 50)    
Moisture  
Dew Point 64 °F    
Average Humidity 83    
Maximum Humidity 88    
Minimum Humidity 78    
Precipitation  
Precipitation 0.00 in - - ()
Sea Level Pressure  
Sea Level Pressure 29.92 in    
Wind  
Wind Speed 14 mph (SSE)    
Max Wind Speed 20 mph    
Max Gust Speed 28 mph    
Visibility 8 miles    
Events      
T = Trace of Precipitation, MM = Missing Value Source: NWS Daily Summary

Daily Weather History Graph

Daily Weather History Graph

Search for Another Location

Airport or City:

Trip Planner

Search our weather history database for the weather conditions in past years. The results will help you decide how hot, cold, wet, or windy it might be!

Date:

Astronomy

Jan. 31, 2014 Rise Set
Actual Time 7:11 AM CST 6:04 PM CST
Civil Twilight 6:47 AM CST 6:29 PM CST
Nautical Twilight 6:19 AM CST 6:57 PM CST
Astronomical Twilight 5:51 AM CST 7:25 PM CST
Moon 7:31 AM CST (1/31) 7:18 PM CST (1/31)
Length of Visible Light 11h 41m
Length of Day
10h 52m
New Moon, 1% of the Moon is Illuminated
Jan 31
New Moon
Feb 6
First Quarter
Feb 14
Full
Feb 22
Last Quarter
Mar 1
New

Hourly Weather History & Observations

Time (CST) Temp. Dew Point Humidity Pressure Visibility Wind Dir Wind Speed Gust Speed Precip Events Conditions
12:15 AM 66.2 °F 60.8 °F 83% 29.95 in 10.0 mi SSE 16.1 mph 21.9 mph N/A   Overcast
12:35 AM 66.2 °F 60.8 °F 83% 29.95 in 10.0 mi SSE 12.7 mph 20.7 mph N/A   Mostly Cloudy
12:55 AM 68.0 °F 60.8 °F 78% 29.94 in 10.0 mi South 11.5 mph 19.6 mph N/A   Mostly Cloudy
1:15 AM 68.0 °F 60.8 °F 78% 29.94 in 10.0 mi SSE 12.7 mph 19.6 mph N/A   Overcast
1:35 AM 68.0 °F 60.8 °F 78% 29.94 in 9.0 mi SSE 13.8 mph - N/A   Mostly Cloudy
1:55 AM 68.0 °F 60.8 °F 78% 29.94 in 10.0 mi SSE 9.2 mph 17.3 mph N/A   Mostly Cloudy
2:15 AM 68.0 °F 60.8 °F 78% 29.94 in 9.0 mi SSE 10.4 mph 17.3 mph N/A   Mostly Cloudy
2:35 AM 68.0 °F 62.6 °F 83% 29.94 in 8.0 mi SSE 10.4 mph - N/A   Mostly Cloudy
2:55 AM 68.0 °F 62.6 °F 83% 29.94 in 9.0 mi SSE 9.2 mph - N/A   Overcast
3:15 AM 68.0 °F 62.6 °F 83% 29.93 in 10.0 mi SSE 12.7 mph - N/A   Mostly Cloudy
3:35 AM 68.0 °F 62.6 °F 83% 29.93 in 9.0 mi SSE 10.4 mph 16.1 mph N/A   Mostly Cloudy
3:55 AM 68.0 °F 62.6 °F 83% 29.93 in 10.0 mi SSE 11.5 mph 17.3 mph N/A   Overcast
4:15 AM 68.0 °F 62.6 °F 83% 29.92 in 9.0 mi SSE 13.8 mph - N/A   Overcast
4:35 AM 68.0 °F 62.6 °F 83% 29.93 in 9.0 mi SSE 10.4 mph 17.3 mph N/A   Mostly Cloudy
4:55 AM 68.0 °F 62.6 °F 83% 29.93 in 10.0 mi SSE 10.4 mph 16.1 mph N/A   Mostly Cloudy
5:15 AM 68.0 °F 62.6 °F 83% 29.93 in 8.0 mi SSE 13.8 mph 19.6 mph N/A   Mostly Cloudy
5:35 AM 68.0 °F 62.6 °F 83% 29.93 in 8.0 mi SSE 13.8 mph - N/A   Mostly Cloudy
5:55 AM 68.0 °F 62.6 °F 83% 29.93 in 8.0 mi SSE 13.8 mph - N/A   Scattered Clouds
6:15 AM 68.0 °F 62.6 °F 83% 29.93 in 8.0 mi SSE 11.5 mph 19.6 mph N/A   Mostly Cloudy
6:35 AM 68.0 °F 62.6 °F 83% 29.93 in 9.0 mi SSE 15.0 mph - N/A   Mostly Cloudy
6:55 AM 68.0 °F 62.6 °F 83% 29.94 in 9.0 mi SSE 16.1 mph 23.0 mph N/A   Mostly Cloudy
7:15 AM 68.0 °F 62.6 °F 83% 29.95 in 8.0 mi SSE 15.0 mph 21.9 mph N/A   Mostly Cloudy
7:35 AM 68.0 °F 62.6 °F 83% 29.95 in 7.0 mi SSE 17.3 mph 24.2 mph N/A   Scattered Clouds
7:55 AM 68.0 °F 62.6 °F 83% 29.95 in 7.0 mi SSE 15.0 mph - N/A   Partly Cloudy
8:15 AM 68.0 °F 64.4 °F 88% 29.95 in 7.0 mi SSE 16.1 mph - N/A   Clear
8:35 AM 68.0 °F 62.6 °F 83% 29.96 in 8.0 mi SSE 13.8 mph - N/A   Clear
8:55 AM 69.8 °F 62.6 °F 78% 29.96 in 8.0 mi SSE 16.1 mph - N/A   Clear
9:15 AM 69.8 °F 64.4 °F 83% 29.96 in 7.0 mi SSE 15.0 mph 21.9 mph N/A   Clear
9:35 AM 69.8 °F 64.4 °F 83% 29.97 in 7.0 mi SSE 19.6 mph 26.5 mph N/A   Clear
9:55 AM 69.8 °F 64.4 °F 83% 29.97 in 8.0 mi SSE 16.1 mph 26.5 mph N/A   Clear
10:15 AM 69.8 °F 62.6 °F 78% 29.97 in 8.0 mi SSE 16.1 mph 24.2 mph N/A   Clear
10:35 AM 69.8 °F 62.6 °F 78% 29.97 in 8.0 mi SSE 18.4 mph 25.3 mph N/A   Clear
10:55 AM 69.8 °F 64.4 °F 83% 29.97 in 8.0 mi SSE 16.1 mph 27.6 mph N/A   Clear
11:15 AM 71.6 °F 64.4 °F 78% 29.97 in 8.0 mi SSE 17.3 mph 24.2 mph N/A   Scattered Clouds
11:35 AM 71.6 °F 64.4 °F 78% 29.97 in 8.0 mi SSE 18.4 mph 25.3 mph N/A   Partly Cloudy
11:55 AM 71.6 °F 64.4 °F 78% 29.96 in 7.0 mi SSE 16.1 mph 24.2 mph N/A   Scattered Clouds
12:35 PM 71.6 °F 64.4 °F 78% 29.95 in 8.0 mi SSE 15.0 mph 20.7 mph N/A   Overcast
12:55 PM 71.6 °F 64.4 °F 78% 29.94 in 8.0 mi SSE 15.0 mph 21.9 mph N/A   Scattered Clouds
2:55 PM 69.8 °F 64.4 °F 83% 29.90 in 7.0 mi SSE 15.0 mph 24.2 mph N/A   Mostly Cloudy
3:15 PM 69.8 °F 64.4 °F 83% 29.90 in 6.0 mi SSE 18.4 mph 24.2 mph N/A   Haze
3:35 PM 69.8 °F 64.4 °F 83% 29.89 in 6.0 mi SE 13.8 mph 23.0 mph N/A   Haze
3:55 PM 69.8 °F 64.4 °F 83% 29.89 in 7.0 mi SE 16.1 mph 23.0 mph N/A   Mostly Cloudy
4:15 PM 69.8 °F 64.4 °F 83% 29.89 in 6.0 mi SE 15.0 mph - N/A   Haze
4:35 PM 69.8 °F 64.4 °F 83% 29.89 in 7.0 mi SE 12.7 mph 23.0 mph N/A   Mostly Cloudy
4:55 PM 69.8 °F 64.4 °F 83% 29.89 in 6.0 mi SE 13.8 mph 20.7 mph N/A   Haze
5:15 PM 69.8 °F 64.4 °F 83% 29.89 in 6.0 mi SE 15.0 mph 23.0 mph N/A   Haze
5:35 PM 69.8 °F 64.4 °F 83% 29.89 in 5.0 mi SE 17.3 mph - N/A   Haze
5:55 PM 69.8 °F 64.4 °F 83% 29.89 in 6.0 mi SE 16.1 mph 23.0 mph N/A   Haze
6:15 PM 69.8 °F 66.2 °F 88% 29.89 in 5.0 mi SE 15.0 mph 23.0 mph N/A   Haze
6:35 PM 69.8 °F 66.2 °F 88% 29.89 in 5.0 mi SE 17.3 mph 24.2 mph N/A   Haze
6:55 PM 69.8 °F 66.2 °F 88% 29.89 in 6.0 mi SE 17.3 mph 26.5 mph N/A   Haze
7:15 PM 69.8 °F 66.2 °F 88% 29.89 in 7.0 mi SE 13.8 mph 24.2 mph N/A   Mostly Cloudy
7:35 PM 69.8 °F 66.2 °F 88% 29.89 in 7.0 mi SE 11.5 mph 23.0 mph N/A   Overcast
7:55 PM 69.8 °F 66.2 °F 88% 29.89 in 7.0 mi ESE 10.4 mph 19.6 mph N/A   Mostly Cloudy
8:15 PM 69.8 °F 66.2 °F 88% 29.89 in 7.0 mi SE 10.4 mph 19.6 mph N/A   Unknown
8:35 PM 69.8 °F 66.2 °F 88% 29.90 in 6.0 mi SE 11.5 mph 21.9 mph N/A   Overcast
8:55 PM 69.8 °F 66.2 °F 88% 29.90 in 6.0 mi SE 13.8 mph 24.2 mph N/A   Haze
9:15 PM 69.8 °F 66.2 °F 88% 29.91 in 6.0 mi SE 11.5 mph 20.7 mph N/A   Overcast
9:35 PM 69.8 °F 66.2 °F 88% 29.90 in 7.0 mi SE 15.0 mph 20.7 mph N/A   Mostly Cloudy
9:55 PM 69.8 °F 66.2 °F 88% 29.91 in 6.0 mi SE 15.0 mph 20.7 mph N/A   Mostly Cloudy
10:15 PM 69.8 °F 66.2 °F 88% 29.90 in 6.0 mi SE 13.8 mph 21.9 mph N/A   Mostly Cloudy
10:35 PM 69.8 °F 66.2 °F 88% 29.91 in 6.0 mi SE 12.7 mph 19.6 mph N/A   Mostly Cloudy
10:55 PM 69.8 °F 66.2 °F 88% 29.90 in 6.0 mi SE 12.7 mph 19.6 mph N/A   Overcast
11:15 PM 69.8 °F 66.2 °F 88% 29.89 in 6.0 mi SE 15.0 mph 26.5 mph N/A   Overcast
11:35 PM 69.8 °F 66.2 °F 88% 29.89 in 6.0 mi SE 13.8 mph 24.2 mph N/A   Mist
11:55 PM 69.8 °F 66.2 °F 88% 29.88 in 6.0 mi SE 15.0 mph 24.2 mph N/A   Mist